Regional Weather Roundup
Issued by NWS Charleston, WV

Home | Current Version | Previous Version | Text Only | Print | Product List | Glossary On
Versions: 1 2 3 4 5 6 7 8 9 10 11 12 13 14 15 16 17 18 19 20 21 22 23 24 25 26 27 28 29 30 31 32 33 34 35 36 37 38 39 40 41 42 43 44 45 46 47 48 49 50
000
ASUS41 KRLX 020710
RWRRLX
West Virginia Regional Weather Roundup
National Weather Service Charleston WV
200 AM EST MON MAR 02 2015

Note: "fair" indicates few or no clouds below 12,000 feet with no
significant weather and/or obstructions to visibility.

WVZ003-020800-
Northern Panhandle of West Virginia

CITY           SKY/WX    TMP DP  RH WIND       PRES   REMARKS
WHEELING       CLOUDY    32  28  85 W10G20    30.19R
$$

WVZ009-020800-
Northwest West Virginia

CITY           SKY/WX    TMP DP  RH WIND       PRES   REMARKS
PARKERSBURG    LGT SNOW  33  30  88 NW9       30.28R FOG
$$

WVZ006-020800-
Western West Virginia

CITY           SKY/WX    TMP DP  RH WIND       PRES   REMARKS
HUNTINGTON     MIX PCPN  35  35 100 NW3       30.28R FOG
$$

WVZ015-020800-
West Central West Virginia

CITY           SKY/WX    TMP DP  RH WIND       PRES   REMARKS
CHARLESTON     LGT RAIN  39  37  92 NW9       30.25R VSB 1
$$

WVZ022-031-020800-
North Central West Virginia

CITY           SKY/WX    TMP DP  RH WIND       PRES   REMARKS
CLARKSBURG     LGT RAIN  36  35  96 W9        30.18S
MORGANTOWN     CLOUDY    36  32  85 VRB6      30.18R
$$

WVZ025-035-042-045-020800-
Southern West Virginia

CITY           SKY/WX    TMP DP  RH WIND       PRES   REMARKS
BECKLEY        LGT RAIN  41  39  93 W8        30.16F VSB 1/4
LOGAN          LGT RAIN  39  39 100 VRB3G12   30.20R
BLUEFIELD      FOG       45  42  89 W12G18    30.17F VSB 1/4
LEWISBURG      CLOUDY    43  42  95 SW8       30.15F
$$

WVZ047-020800-
Northern Mountains of West Virginia

CITY           SKY/WX    TMP DP  RH WIND       PRES   REMARKS
ELKINS         LGT RAIN  39  37  92 W14G22    30.15S
$$

WVZ052-020800-
Eastern Panhandle of West Virginia

CITY           SKY/WX    TMP DP  RH WIND       PRES   REMARKS
MARTINSBURG    CLOUDY    32  29  88 S3        30.11F FOG
PETERSBURG     DRIZZLE   48  36  63 W15G23    30.09S
$$


USA.gov is the U.S. government's official web portal to all federal, state and local government web resources and services.